Theta_e
328 328 327 327 329 330 329 329 330 331 330 330 330 330 329 330 330 330 329 329 329 329 329 329 329 329 329 328 327 326 325 324 324 318 310 305 304 306 307 306 306 305 303 302 303 303 303 302 302 303 302 303 303 302 303 303 303 303 303 303 304 305 306 308 311 312 313 313 313 313 313 313 313 313
328 327 326 326 329 330 329 329 330 330 330 331 330 329 329 330 330 330 330 329 329 329 329 329 329 329 329 328 327 327 325 325 322 312 309 308 305 305 308 306 305 305 303 302 303 303 303 303 302 302 303 303 303 303 303 303 303 304 305 306 308 309 310 312 312 313 313 313 313 313 313 313 313 313
327 327 326 327 329 329 329 329 330 330 330 330 330 329 330 330 329 329 330 329 329 329 329 329 329 329 329 328 328 326 324 325 320 309 311 314 308 306 308 306 305 305 303 302 303 303 303 303 302 302 302 303 303 303 303 304 306 307 309 310 312 312 312 313 313 313 313 313 313 313 313 313 313 313
327 328 328 329 330 329 329 330 331 331 331 330 329 330 330 329 328 329 328 328 329 329 328 329 329 328 329 328 328 326 323 323 318 311 315 316 309 307 308 307 305 304 303 303 303 303 303 303 302 302 303 303 303 304 305 306 308 310 311 312 313 313 313 313 313 313 313 313 313 313 312 312 312 312
328 328 328 328 329 329 329 330 330 330 331 330 328 328 328 328 329 329 329 329 329 328 328 329 328 328 328 327 327 326 324 322 318 315 318 315 308 307 308 307 307 304 303 303 303 303 304 303 303 302 302 303 303 304 306 307 309 311 312 312 312 313 312 312 312 312 312 312 312 312 312 312 312 312
328 328 328 328 329 329 329 330 330 329 329 328 328 327 326 326 328 329 330 330 329 328 328 328 328 328 328 327 327 326 324 323 319 316 318 315 307 307 307 307 307 305 304 303 303 304 304 304 304 303 303 303 303 305 306 307 309 311 312 312 312 312 312 312 312 312 312 312 312 312 312 311 312 312
329 327 328 329 328 328 329 329 330 329 327 325 327 327 324 325 328 330 330 330 329 328 328 328 328 328 327 327 327 326 325 324 320 315 318 317 310 308 310 310 308 306 304 303 303 303 304 304 305 304 304 303 303 304 305 307 308 310 310 311 311 311 310 311 311 311 311 311 311 311 311 312 312 312
329 328 328 328 328 328 330 330 329 329 327 324 326 325 324 326 329 329 330 329 329 328 327 328 328 328 328 327 327 326 325 325 320 315 317 318 313 310 311 314 313 309 305 304 303 303 303 304 305 305 305 304 304 304 305 305 307 308 308 309 309 309 309 309 310 310 310 310 310 311 311 311 312 312
330 329 326 326 327 328 329 330 329 328 327 325 326 326 326 328 329 329 330 329 329 329 328 328 327 327 328 328 326 326 325 324 321 316 316 317 315 312 312 313 315 313 308 305 303 303 303 304 305 306 305 305 305 304 304 304 305 305 306 306 307 307 307 307 307 307 308 308 309 310 311 311 311 312
330 329 326 326 326 327 327 329 329 329 328 327 327 328 328 329 329 329 330 330 329 328 328 328 327 326 327 328 326 326 325 323 321 318 316 317 315 313 312 312 313 313 310 306 305 304 305 305 306 306 306 306 306 305 305 305 305 305 305 305 306 306 306 306 307 307 308 308 309 310 311 311 312 312
330 329 328 327 326 326 328 330 329 329 329 329 328 329 329 329 329 328 329 329 329 328 328 328 327 325 327 327 326 325 323 322 321 318 318 318 316 314 313 312 312 312 309 307 307 306 306 306 306 306 306 306 307 307 307 308 308 308 308 308 308 309 309 309 310 310 310 310 311 311 312 312 312 312
329 329 328 327 326 327 329 330 328 327 328 328 328 329 329 329 329 328 328 329 329 328 327 327 327 325 326 326 325 323 321 321 320 319 318 318 317 316 315 313 313 312 310 308 307 307 307 306 306 306 306 306 308 309 310 310 310 311 311 311 311 311 312 312 312 312 312 312 313 313 313 313 314 314
328 328 328 327 326 326 327 328 327 327 327 327 328 330 329 328 328 329 328 328 329 328 327 327 327 325 324 324 323 322 320 320 320 319 318 318 318 317 316 315 314 314 313 311 309 309 309 308 308 307 307 307 309 311 312 312 312 313 312 312 312 313 313 313 313 313 313 313 314 314 314 315 315 316
329 327 327 327 326 326 326 326 327 327 327 327 327 329 329 328 328 327 326 327 328 327 327 326 326 325 324 323 322 321 320 319 320 320 319 320 319 318 317 316 314 314 314 314 313 312 311 310 309 308 308 309 311 312 313 313 313 312 312 313 313 313 313 313 313 314 314 315 315 315 316 316 316 316
329 327 326 327 326 326 325 326 327 326 327 327 326 327 327 326 326 326 325 327 328 327 326 326 326 325 324 323 322 322 321 320 321 321 320 320 320 319 318 317 316 314 313 314 314 314 313 312 311 311 311 312 313 313 313 314 313 313 313 313 313 313 314 315 315 316 316 316 316 316 316 316 316 315
328 327 327 327 326 325 326 328 328 327 327 328 327 327 326 324 325 325 325 327 328 326 326 327 325 324 323 323 323 323 322 322 322 322 322 321 320 319 318 317 317 315 313 313 314 314 314 314 314 314 314 314 314 315 315 315 315 315 314 314 315 316 316 316 316 316 316 316 315 315 314 314 313 311
327 327 328 328 326 326 327 329 328 327 328 328 328 327 326 325 325 325 324 326 327 327 326 325 325 324 324 323 324 324 324 324 323 323 322 321 320 319 318 316 316 316 315 313 314 314 315 316 316 316 316 315 316 316 316 316 316 316 316 316 316 316 316 316 315 315 314 313 312 311 309 307 305 304
327 327 327 326 326 327 329 328 327 327 327 326 326 326 325 325 325 324 324 324 325 326 326 325 325 325 324 324 324 324 324 324 324 323 322 321 320 318 318 316 316 318 316 313 314 316 316 317 317 317 316 316 317 317 317 317 318 317 317 316 316 315 314 314 312 311 309 307 305 303 302 301 300 300
326 326 327 327 327 328 329 327 326 326 326 326 325 326 326 326 326 325 325 325 324 325 325 325 325 325 324 324 324 323 324 324 323 322 322 321 320 318 317 316 317 319 317 314 315 317 317 317 318 319 318 318 319 319 319 319 318 317 316 315 314 313 310 308 306 304 303 301 301 300 299 299 299 299
326 326 327 327 328 327 326 326 326 325 325 325 326 326 326 326 325 324 324 324 325 325 325 324 325 324 324 325 324 323 324 324 323 322 321 320 319 317 316 315 316 318 317 316 315 316 318 318 319 320 319 319 319 319 318 317 316 315 314 312 310 307 304 302 301 301 300 300 299 298 298 298 298 299
327 326 325 326 327 327 325 325 326 324 323 323 324 325 325 324 323 322 321 322 324 326 326 325 325 324 324 325 324 323 324 324 323 323 322 320 317 316 315 314 314 316 317 316 315 315 317 318 318 319 319 318 318 317 315 314 313 312 310 308 305 303 302 301 301 300 300 299 298 298 298 298 299 299
327 326 325 325 327 326 325 325 325 322 321 323 323 323 323 323 320 318 319 322 324 326 326 325 325 325 324 324 324 323 323 323 322 321 321 320 317 314 313 312 313 316 317 317 316 315 315 317 317 318 317 316 314 313 313 313 311 309 308 306 305 304 303 302 302 301 301 300 300 300 299 299 299 299
326 326 325 325 325 325 324 324 322 319 318 320 321 321 321 320 317 317 321 324 325 325 324 325 325 324 324 323 323 323 323 322 320 320 320 320 318 315 315 314 315 317 318 318 317 315 315 316 316 315 314 312 311 312 312 311 310 308 307 306 306 305 304 303 303 303 302 302 301 301 300 299 299 299
326 325 324 323 324 325 324 322 320 317 316 318 320 320 320 319 319 320 323 323 323 323 323 322 322 322 323 323 322 320 319 318 318 319 319 319 318 317 317 317 317 318 319 318 316 313 313 313 313 312 311 309 309 311 311 310 309 308 307 306 306 305 304 303 303 303 303 302 302 301 300 299 299 300
325 324 323 323 323 324 323 320 319 317 316 317 319 319 319 319 320 321 321 319 319 319 319 319 319 319 319 318 316 315 314 315 317 318 318 318 317 316 315 314 315 317 316 315 313 310 309 311 310 310 310 308 308 309 309 309 309 308 306 306 305 304 304 303 303 303 303 302 302 301 300 299 300 301
323 323 323 323 323 323 322 320 318 317 317 317 318 317 317 318 318 318 317 316 315 314 314 314 314 314 313 313 313 313 313 313 315 317 318 317 317 316 314 312 312 313 311 310 308 304 306 310 310 309 309 309 308 308 308 308 308 306 306 305 304 303 303 303 303 303 302 302 302 301 299 299 300 301
321 321 321 321 321 320 321 320 318 317 318 318 318 317 316 316 316 315 315 314 312 312 311 311 311 311 311 311 312 313 313 313 314 315 315 314 313 312 310 307 309 311 309 305 302 300 304 309 308 306 306 307 307 307 307 307 307 306 305 304 303 303 303 303 302 302 302 302 301 301 300 299 300 300
319 318 319 319 319 318 319 320 319 319 318 318 317 316 316 316 315 314 313 312 311 311 310 309 309 309 310 310 310 309 309 307 307 307 307 306 304 303 302 302 305 307 304 300 298 298 301 305 304 302 301 303 304 306 306 306 305 305 304 303 302 302 302 302 302 302 301 301 301 301 300 300 299 299
315 316 316 317 317 317 317 318 318 318 317 317 317 317 316 315 313 312 311 311 310 310 309 308 308 308 307 306 305 303 301 300 299 299 299 299 299 299 298 299 300 300 299 298 298 297 298 301 301 300 300 301 303 304 304 304 304 303 302 302 302 302 302 301 301 301 301 301 301 301 300 299 299 299
311 312 314 315 315 314 314 314 315 316 315 315 316 315 314 312 311 310 310 309 309 309 308 307 306 304 303 301 300 299 299 299 299 299 299 299 299 298 297 297 297 297 297 297 297 297 297 298 298 299 302 303 303 303 303 303 302 302 302 301 301 301 301 301 301 301 301 301 301 300 299 299 299 299
307 309 310 311 311 311 311 311 312 313 313 313 312 311 310 310 309 309 309 308 308 307 306 304 302 301 299 299 298 298 298 298 299 300 300 301 302 302 300 298 297 298 297 297 297 297 297 298 299 300 302 303 302 302 302 301 302 302 301 301 300 301 301 301 300 300 300 300 300 300 299 298 298 299
303 304 305 306 306 307 308 308 309 310 310 309 308 307 307 307 306 305 305 305 304 302 302 301 299 299 298 298 298 298 298 297 297 298 298 299 301 303 302 301 300 301 300 299 299 298 298 298 299 300 300 301 301 301 301 301 301 301 301 300 300 300 300 300 300 300 299 299 299 299 299 298 298 298
301 302 303 303 303 304 305 305 305 305 306 306 306 305 304 304 303 302 302 301 300 299 299 298 298 298 298 297 297 297 297 297 296 296 296 297 298 300 301 301 302 302 301 300 300 300 299 299 299 299 299 299 299 299 300 301 301 300 300 300 300 300 299 299 299 299 299 299 299 299 298 298 297 297
301 301 302 302 302 302 303 303 303 303 303 304 304 304 304 303 302 301 299 299 298 298 298 298 297 297 297 297 297 296 296 296 296 296 296 296 297 298 299 300 300 301 301 300 300 300 299 299 299 299 299 299 298 298 298 299 300 300 300 299 299 299 299 299 299 298 298 298 298 298 298 298 298 297
299 300 300 300 301 301 301 302 302 302 302 302 302 302 302 301 300 299 298 298 298 298 298 298 298 297 297 297 297 296 296 296 296 296 296 296 296 298 300 300 300 300 300 300 300 299 299 299 300 300 301 300 300 299 298 298 298 299 299 299 299 299 298 298 298 298 298 298 298 298 298 297 297 297
298 298 298 298 298 299 300 300 300 300 300 300 300 300 300 299 299 299 298 298 298 298 298 298 298 297 297 297 297 297 296 296 296 296 296 296 297 298 300 300 300 300 299 299 299 299 299 299 299 300 300 301 300 299 298 297 297 297 298 298 298 298 297 298 297 297 297 297 297 297 297 296 297 297
297 298 298 298 298 298 298 298 298 298 298 299 299 299 299 298 298 298 298 298 298 298 298 297 297 297 297 297 296 296 296 296 295 295 296 296 297 298 298 299 299 299 299 299 298 298 298 298 298 299 299 299 300 299 298 297 296 296 296 297 297 297 297 297 297 297 297 297 297 297 296 296 296 296
297 297 297 297 297 297 297 297 297 297 297 297 298 298 298 298 298 298 297 297 297 297 297 296 296 296 295 295 295 295 294 294 294 295 296 296 296 297 297 297 298 298 298 298 298 298 298 298 298 298 298 298 298 298 297 297 297 296 296 295 296 296 296 296 297 296 297 297 297 296 296 295 295 295
296 296 297 297 297 297 297 297 297 297 297 297 297 297 297 297 297 297 297 296 296 296 295 295 295 295 294 294 294 294 294 294 294 294 294 295 296 296 297 297 297 297 297 297 297 297 297 297 297 297 297 297 297 297 297 296 296 296 295 295 295 296 296 296 296 296 296 297 296 296 295 295 295 295
296 296 297 297 297 297 297 297 297 296 296 296 296 296 296 296 296 296 296 295 295 295 294 294 294 293 293 293 293 293 293 293 293 293 293 294 295 296 296 296 296 296 296 296 297 297 297 296 296 296 296 296 296 296 296 296 296 296 295 294 294 295 295 296 296 296 296 296 296 295 295 295 295 295
296 296 296 296 296 296 296 296 296 295 295 295 295 295 295 295 295 295 295 294 294 293 293 293 293 292 292 293 293 293 293 293 294 293 293 294 295 295 295 296 296 296 296 296 296 296 296 296 295 294 295 296 296 296 296 296 296 296 296 295 295 294 294 294 294 294 294 295 296 295 295 295 295 295
295 295 295 295 295 295 295 295 295 294 294 294 294 294 294 293 293 293 293 292 292 292 292 292 292 292 292 293 293 293 293 294 294 294 294 294 295 295 295 295 295 295 295 295 295 295 296 296 295 295 295 296 296 296 296 296 296 296 296 296 296 295 294 294 294 294 294 294 294 294 294 295 295 295
295 295 295 295 295 294 294 294 294 294 293 293 293 292 292 292 292 291 291 291 292 292 292 292 292 293 293 293 293 293 293 293 293 294 294 294 295 295 294 294 295 295 295 295 295 295 295 295 295 296 296 296 296 296 296 296 296 296 296 296 296 296 295 295 295 295 294 294 293 293 293 293 293 294
295 295 295 295 294 294 294 294 293 293 293 292 292 292 292 292 292 292 292 292 293 293 293 293 293 293 293 293 293 293 293 293 293 293 294 294 294 294 294 294 294 294 294 294 295 295 295 295 295 295 296 296 296 296 296 296 295 295 295 295 295 295 295 295 295 295 295 294 294 293 292 292 292 292
295 294 294 294 294 294 294 294 293 293 293 293 292 292 292 292 292 292 292 293 293 293 293 293 293 293 293 293 293 293 293 293 293 294 294 294 294 294 294 294 294 294 294 294 294 295 295 295 295 295 295 295 295 295 295 295 295 295 294 295 294 294 295 295 295 295 295 295 294 293 293 292 292 292
Wind_Speed
23 23 24 25 27 26 25 25 21 19 18 16 17 19 17 14 15 16 15 16 18 18 18 18 18 18 18 18 16 15 16 15 13 15 15 14 15 15 14 14 14 15 16 15 14 13 12 11 11 10 10 10 10 11 11 10 10 9 9 9 9 9 9 9 8 8 7 5 4 3 2 3 3 4
23 24 26 27 28 27 26 26 23 22 21 18 18 20 18 16 16 15 15 16 18 19 19 18 17 18 18 18 16 15 15 14 13 15 15 14 15 15 14 14 14 16 16 15 14 13 12 12 11 11 11 11 10 11 11 10 10 10 10 10 9 9 9 9 8 7 6 4 3 1 0 2 3 4
24 25 27 29 30 29 28 25 23 23 23 23 22 19 19 21 19 17 16 16 17 18 18 18 18 17 18 19 17 16 17 16 14 15 15 14 14 16 15 14 15 16 16 16 15 14 13 12 12 11 11 11 11 10 10 10 10 10 10 10 10 9 9 9 8 7 6 5 3 3 3 3 5 6
25 25 27 29 29 30 27 24 24 23 23 25 25 21 21 22 20 19 19 17 16 18 19 18 18 18 19 20 18 17 18 19 15 15 15 16 16 16 17 15 15 16 16 16 15 14 13 12 12 12 11 11 11 11 11 10 10 10 10 10 10 9 9 9 8 7 6 6 5 5 5 6 7 8
26 26 27 27 27 28 29 27 26 26 25 26 26 24 22 21 20 20 19 17 16 18 20 20 19 18 20 21 19 18 19 18 16 16 17 19 18 17 17 16 15 16 17 17 16 15 14 13 12 12 12 12 12 11 11 11 11 11 11 11 10 10 9 9 8 8 7 7 7 7 8 8 9 10
27 27 27 28 27 27 29 29 27 26 26 27 27 26 25 23 21 19 19 18 15 17 21 21 18 18 19 22 21 20 20 17 16 19 18 18 18 17 17 17 16 17 17 17 17 16 15 14 14 13 13 13 13 12 12 12 12 12 11 11 11 10 10 9 9 9 9 9 9 10 10 11 11 12
27 27 26 28 28 26 28 29 27 24 26 27 27 27 27 25 21 19 20 20 17 18 21 20 19 20 21 23 23 22 20 17 16 19 18 16 16 17 17 16 16 17 17 17 17 17 16 15 15 14 14 14 14 13 13 13 12 12 12 11 11 11 11 11 11 11 11 11 12 12 13 13 14 15
27 27 27 27 27 25 26 27 27 26 26 27 27 27 27 25 23 21 21 20 18 19 21 19 19 22 22 23 24 21 20 17 15 17 19 16 15 17 16 15 15 16 16 18 18 17 17 16 15 15 14 14 14 14 14 13 13 12 12 12 12 12 12 12 12 12 13 13 14 15 16 16 17 18
26 27 28 28 26 26 27 27 27 27 27 27 26 25 25 25 23 22 21 19 18 19 20 20 20 21 21 22 23 22 21 19 16 17 19 17 16 17 16 15 16 17 16 18 19 18 18 17 16 16 15 14 14 14 14 14 13 13 13 13 13 13 13 13 14 14 15 16 17 18 19 20 21 22
26 27 27 26 24 25 27 27 26 27 27 26 25 23 23 23 23 24 22 20 20 20 21 21 20 20 21 21 21 21 21 20 17 17 18 17 17 18 17 16 18 20 19 18 19 19 19 18 17 16 15 14 14 14 14 14 14 14 14 14 14 14 14 15 15 16 17 18 19 20 21 22 24 25
26 27 26 25 24 25 26 26 26 26 25 25 24 23 22 21 22 24 24 21 21 22 22 22 21 20 20 21 22 22 21 20 18 18 18 18 17 18 18 17 18 20 20 18 18 18 18 18 17 16 16 15 15 15 14 14 14 14 14 14 14 14 14 16 17 18 20 21 22 23 24 25 26 27
26 26 27 27 26 26 27 28 28 27 26 26 26 26 25 21 19 22 24 22 21 22 23 24 23 20 20 22 23 21 21 21 20 19 19 18 18 17 18 18 17 17 18 18 18 18 18 18 18 17 17 17 16 15 15 14 14 13 13 13 14 15 16 18 19 20 21 22 23 24 25 26 27 28
25 25 27 28 27 26 26 28 30 29 28 28 27 27 28 25 22 23 23 22 22 22 22 22 22 20 19 21 22 22 23 23 21 20 19 18 17 17 17 17 17 16 15 15 16 16 17 17 17 18 18 17 16 15 15 15 14 13 14 15 16 17 18 19 20 21 22 23 24 25 26 27 27 28
24 25 26 27 27 26 26 27 30 29 27 27 27 27 26 26 25 24 23 22 24 23 19 17 21 22 18 20 23 23 23 24 22 20 19 18 17 17 16 15 17 17 16 15 15 15 16 15 16 17 17 16 15 15 15 15 15 16 16 17 18 19 19 21 21 22 23 24 25 25 26 27 28 28
24 25 26 25 25 26 27 28 30 29 26 25 26 26 25 25 25 24 23 24 25 24 19 15 18 23 22 21 21 21 21 22 22 20 20 19 17 18 18 16 16 19 19 17 15 15 16 15 14 14 14 15 17 17 16 16 16 17 17 17 18 19 20 21 21 22 23 24 25 26 27 27 28 29
25 26 28 26 25 26 27 29 30 29 26 26 26 26 25 23 23 23 24 24 23 23 22 18 15 22 27 24 21 22 21 21 21 20 19 19 19 19 18 17 16 18 19 18 17 15 15 15 14 13 14 17 19 18 17 17 17 17 17 17 18 19 19 20 21 22 23 24 25 26 27 28 29 29
27 28 28 27 25 26 28 31 31 28 28 28 27 27 26 24 23 23 23 23 22 22 23 21 17 20 27 28 25 23 21 19 20 21 20 19 19 19 18 17 16 17 17 18 17 15 15 16 14 13 13 15 17 17 17 18 19 19 18 19 19 19 20 22 22 23 24 25 25 26 27 27 28 28
29 29 28 28 27 26 27 30 31 28 26 27 27 26 26 25 25 25 23 23 23 22 22 23 20 18 23 29 28 24 22 19 19 20 20 20 19 18 19 18 16 16 16 17 17 15 14 16 16 16 17 17 16 17 18 18 19 20 19 19 19 20 21 22 23 24 24 24 25 25 26 26 26 26
28 27 27 27 27 25 24 24 26 25 23 23 24 23 24 25 25 25 25 23 24 24 23 23 21 18 19 24 26 26 25 20 19 21 23 24 23 23 23 20 15 15 17 19 19 16 14 16 17 16 18 19 17 16 16 17 17 18 18 19 20 21 22 22 23 23 23 23 23 23 23 23 23 23
26 26 25 24 25 24 21 19 20 21 20 21 21 21 21 21 21 21 23 22 23 24 24 22 21 20 18 18 20 25 26 23 23 25 24 25 27 28 28 24 18 15 16 20 22 18 16 19 18 13 11 13 12 11 12 14 16 16 17 18 19 19 19 20 21 21 21 21 20 20 20 19 19 20
23 26 27 26 24 22 19 17 17 18 18 19 19 18 17 18 19 19 20 19 19 22 23 21 21 21 18 15 17 23 26 25 25 26 25 24 25 27 30 29 22 18 19 21 21 19 17 17 17 12 7 6 6 7 9 12 14 15 16 16 15 15 15 16 16 16 16 16 16 16 16 16 17 17
25 26 26 26 24 21 19 18 16 15 15 16 15 14 15 17 19 18 17 17 18 20 22 21 20 21 20 18 18 22 23 21 21 23 24 23 22 24 28 27 24 22 22 22 21 19 16 10 9 9 6 4 5 6 7 9 10 12 14 14 13 14 14 14 14 13 13 13 14 15 15 14 14 13
27 25 23 23 21 20 21 21 20 17 15 14 13 13 13 14 15 15 14 16 18 19 21 21 21 22 22 21 20 21 20 20 20 20 20 19 19 21 22 23 24 23 22 22 18 14 12 10 9 9 7 5 6 8 6 7 7 7 9 11 13 14 14 15 15 14 15 16 17 17 15 12 12 9
27 25 24 22 20 21 22 22 20 18 16 14 12 11 11 12 12 13 14 15 16 18 20 21 21 21 21 20 19 19 18 19 20 20 21 22 20 17 16 18 22 22 21 20 15 10 9 10 9 9 9 7 6 6 7 7 4 4 6 6 8 10 12 14 15 16 17 19 19 18 16 12 10 7
25 25 24 23 22 23 23 22 21 19 19 16 12 10 11 11 10 11 13 14 15 16 17 17 17 17 17 17 17 17 18 20 20 20 22 23 20 16 12 11 15 19 19 15 11 10 10 8 7 7 6 6 6 4 5 6 5 6 5 3 2 5 8 10 14 16 17 18 18 18 18 13 8 6
23 24 23 23 24 24 24 23 22 21 20 18 14 11 10 8 7 9 13 15 15 15 15 16 16 16 15 16 16 17 18 21 21 20 19 19 18 15 11 8 11 15 14 9 8 11 10 7 10 10 5 3 4 4 3 4 5 4 3 2 2 4 5 5 8 11 14 17 18 18 16 11 7 6
18 19 19 20 22 22 24 25 24 22 21 18 15 12 10 9 8 10 14 17 18 17 17 16 16 15 15 16 16 16 17 18 18 16 15 14 15 13 11 9 11 12 9 5 8 12 11 7 11 13 9 6 5 2 2 4 3 2 2 2 3 4 5 5 5 6 9 13 16 17 14 11 10 8
14 16 17 19 19 18 19 21 22 22 21 19 17 16 14 11 10 11 14 17 18 18 17 16 16 15 15 15 14 12 12 12 11 11 11 11 11 11 10 11 12 11 8 6 7 11 12 9 9 9 9 8 5 2 1 2 2 2 3 3 3 4 5 5 5 6 8 9 10 12 12 11 11 10
10 11 14 17 18 17 17 18 20 21 21 19 18 17 16 15 15 15 15 15 16 17 17 17 16 14 12 12 11 9 9 9 7 7 9 9 9 10 11 11 11 10 9 8 7 9 12 11 9 5 3 4 4 2 1 1 2 3 3 5 5 4 4 5 4 5 6 6 7 9 8 8 9 9
7 7 9 12 15 15 15 16 19 20 18 17 17 19 20 20 20 19 18 17 18 17 16 15 11 8 7 8 10 10 10 11 11 11 10 10 10 9 9 9 8 6 5 5 5 6 8 7 6 5 7 5 2 0 0 1 2 3 4 5 4 4 4 4 5 6 6 5 7 8 7 7 9 10
7 5 6 8 12 13 13 14 16 15 15 16 19 21 23 22 20 19 19 17 15 13 13 11 10 9 8 9 10 10 9 11 12 12 13 13 12 9 7 7 7 6 4 3 2 2 4 4 4 5 9 9 4 0 1 1 2 3 4 4 3 4 5 4 4 7 6 4 5 7 6 7 9 8
13 10 9 10 12 14 15 16 17 17 16 17 18 19 19 18 17 16 15 13 10 9 9 10 10 11 11 12 12 12 11 10 11 12 13 14 14 11 8 7 9 9 8 8 7 5 2 4 5 2 6 9 7 3 0 1 2 2 3 4 3 3 4 3 4 5 5 3 4 6 8 10 10 8
13 14 14 15 15 16 17 19 21 21 21 20 18 15 15 14 14 15 14 13 12 11 11 11 12 12 13 14 14 12 11 11 10 10 10 10 10 10 9 9 9 8 7 8 9 9 7 4 4 4 4 2 4 4 4 2 1 2 2 2 2 2 3 3 3 4 4 4 5 6 8 11 10 8
4 6 9 11 13 15 16 17 18 19 19 18 17 16 15 14 14 13 13 13 13 13 12 12 13 13 13 13 13 12 11 10 9 8 7 7 7 8 9 8 8 7 6 6 6 5 5 8 9 7 7 6 4 4 5 4 1 1 2 1 1 2 2 3 3 4 5 5 6 6 6 7 8 8
10 7 5 5 6 8 10 10 11 12 13 13 14 14 14 14 14 15 15 15 14 13 13 12 12 11 11 11 10 10 8 7 7 6 5 7 9 9 9 8 7 7 6 5 4 4 3 4 6 6 5 5 2 2 4 4 3 0 2 2 1 2 3 3 4 4 4 4 5 4 4 6 7 8
16 14 12 11 9 7 7 8 8 9 10 10 11 12 13 14 14 14 15 14 13 13 13 13 12 11 10 9 8 7 6 5 5 6 7 8 9 10 10 10 9 7 5 5 4 3 4 2 1 3 5 7 7 7 4 0 2 2 2 2 1 2 3 3 3 4 4 4 4 4 4 4 5 6
15 15 14 14 14 14 14 13 13 13 13 13 13 13 14 14 15 14 14 14 13 13 13 12 11 10 9 8 7 7 6 7 7 8 9 9 8 9 11 11 10 7 5 4 3 3 3 2 0 0 3 6 6 10 5 4 7 3 0 1 1 1 1 2 3 4 4 3 3 4 4 4 3 4
14 13 13 13 13 14 15 15 15 15 15 15 14 14 14 14 14 14 14 13 12 12 11 10 9 9 9 9 8 8 8 8 9 9 10 10 9 9 9 9 8 6 5 5 4 3 3 3 2 2 2 4 1 4 4 4 7 7 5 2 1 2 2 3 3 4 3 2 2 3 5 5 4 4
12 11 11 11 11 11 12 11 12 12 12 12 12 12 12 12 12 12 12 12 11 11 10 9 8 8 7 8 9 9 9 9 9 9 10 10 10 10 9 8 7 6 6 6 5 4 4 3 3 3 2 1 2 1 2 2 4 7 7 3 1 2 3 2 1 3 3 2 2 2 4 6 7 6
10 9 9 9 9 9 9 9 9 10 10 10 10 10 10 11 11 11 12 11 11 10 9 9 8 8 8 9 9 8 8 8 8 8 8 10 11 11 10 9 7 6 6 6 6 4 2 1 2 3 3 2 3 3 3 2 2 5 7 4 3 3 2 3 2 1 0 1 3 3 4 5 6 6
8 8 7 8 8 8 8 9 9 9 9 9 9 9 9 9 10 10 10 10 10 9 9 9 8 9 10 11 10 9 9 10 10 9 9 10 13 13 12 10 8 6 5 5 5 3 1 3 2 3 4 5 6 5 4 3 3 3 3 4 4 3 2 3 4 3 1 2 3 2 3 3 3 3
7 7 6 7 7 7 8 8 8 9 9 8 9 9 9 10 10 10 10 10 10 10 10 10 10 9 10 10 10 9 10 10 10 9 9 9 9 9 9 9 7 5 4 5 4 3 2 4 6 7 6 6 5 4 4 4 4 3 1 1 3 4 4 4 6 5 2 1 1 1 2 3 3 3
7 6 6 6 6 7 7 7 7 8 8 9 10 10 10 11 11 10 10 10 10 10 9 10 10 9 9 8 8 8 8 8 9 10 10 8 6 6 7 7 6 5 5 5 4 4 4 5 6 6 5 4 4 4 4 4 4 3 3 2 2 4 5 6 8 7 4 1 1 1 2 3 3 3
6 6 6 6 6 7 7 7 7 8 8 10 10 10 9 9 9 8 8 9 8 8 8 8 9 9 8 8 8 8 9 9 10 10 9 8 7 7 6 6 6 6 6 4 3 4 4 4 4 4 4 4 4 4 3 4 4 3 3 3 3 3 5 7 8 7 5 3 3 3 4 5 5 4
6 6 6 6 6 6 6 6 7 7 8 8 8 7 7 7 6 6 7 7 7 8 8 8 7 7 6 7 8 8 7 7 8 7 6 6 7 6 5 4 5 5 5 4 3 4 4 4 4 4 3 4 4 4 3 3 4 3 3 3 4 4 4 5 5 4 3 5 5 5 6 7 7 7
Wind_Direction
231 231 233 230 228 228 226 226 220 212 208 212 217 210 201 205 206 202 203 203 201 197 195 196 199 201 200 198 195 195 209 220 215 209 211 209 205 206 206 203 201 196 190 191 191 188 190 189 187 185 181 178 178 178 181 181 181 182 181 178 175 173 169 166 165 164 161 157 147 132 95 60 40 23
228 229 230 230 228 226 225 224 220 214 209 208 216 210 201 210 213 207 209 207 202 199 198 198 196 199 205 202 192 192 207 221 215 202 205 211 207 206 210 208 204 199 194 194 194 192 192 192 191 189 186 185 185 185 186 185 185 185 185 184 182 179 176 174 175 177 178 179 182 186 322 348 344 339
227 228 229 228 226 224 223 222 216 214 213 211 210 207 206 213 215 214 216 214 205 198 196 200 199 196 202 204 192 189 208 222 213 194 196 210 211 208 213 213 207 203 199 197 196 195 195 195 194 192 191 191 191 191 191 190 191 191 190 190 188 185 183 183 187 192 198 207 222 249 282 301 308 311
228 230 231 229 226 224 222 220 218 215 217 218 212 208 212 213 213 220 223 220 211 201 196 200 203 197 198 204 196 188 208 219 201 183 194 211 214 212 214 217 214 207 204 202 200 198 198 199 198 196 196 197 197 198 198 197 197 197 198 198 196 194 193 194 200 207 217 229 243 261 276 287 293 298
228 231 234 231 227 225 221 221 223 220 221 223 217 214 218 215 213 220 223 220 212 204 199 199 203 202 198 200 197 189 203 215 194 180 202 218 217 215 215 217 218 213 208 207 205 202 202 202 202 201 201 202 203 204 204 204 205 205 205 205 204 206 207 210 218 225 233 242 252 263 271 279 285 292
229 231 233 231 227 226 225 224 226 224 224 226 220 217 221 219 215 219 222 219 209 199 201 199 197 202 198 194 197 194 199 212 199 184 204 224 219 216 219 219 219 217 213 212 209 207 206 205 205 205 205 207 209 210 210 210 211 211 212 214 216 219 223 228 235 241 248 254 260 267 273 279 284 288
229 229 229 229 228 227 226 224 222 221 223 224 222 220 221 219 216 218 222 221 211 199 201 200 193 198 202 197 198 197 196 208 205 187 198 220 214 210 215 218 221 218 215 215 214 211 210 209 209 209 209 211 212 214 216 216 219 220 221 225 228 232 238 243 249 254 260 266 269 273 275 278 281 284
229 229 228 230 230 224 220 220 221 221 222 223 223 221 219 217 215 218 220 218 213 204 199 200 199 201 205 202 200 197 193 202 206 192 196 206 202 201 203 209 223 226 219 217 217 215 215 214 214 214 214 215 217 219 221 223 225 228 231 236 240 244 249 254 260 264 268 270 272 274 276 278 280 281
229 231 232 232 230 221 219 225 225 222 220 220 221 219 215 214 215 218 218 213 212 210 201 200 203 201 201 202 201 197 192 195 200 196 197 199 197 198 198 201 220 230 224 218 216 216 217 217 218 220 220 220 222 224 226 229 232 235 239 243 247 252 257 261 265 268 271 272 272 274 275 277 278 280
228 231 232 229 226 221 221 228 226 219 218 217 216 217 215 216 218 215 213 209 208 213 209 202 202 203 201 201 201 197 193 193 197 197 197 198 197 198 196 199 217 229 227 221 219 219 219 220 221 224 225 226 227 229 230 232 235 238 242 247 251 256 260 264 267 268 269 270 271 272 274 276 278 281
227 231 231 229 227 223 222 226 222 214 216 215 213 217 218 220 224 219 214 211 209 213 214 206 203 203 200 199 199 196 192 193 198 200 196 195 197 198 196 198 215 231 231 225 224 224 225 226 227 228 230 229 229 231 232 232 234 237 241 246 251 256 260 262 264 265 267 270 273 275 278 280 282 284
232 232 231 231 230 225 222 224 221 216 217 216 215 219 217 216 225 223 216 214 213 214 214 209 204 201 200 201 199 195 195 197 201 202 198 196 195 196 199 200 208 226 233 228 224 225 227 228 229 231 231 231 231 230 230 231 233 236 241 247 252 256 259 262 265 268 272 275 277 279 280 282 283 285
235 232 228 227 225 223 223 223 221 219 220 219 218 222 221 216 220 221 216 215 217 216 216 211 201 195 198 198 194 195 202 203 201 201 198 197 197 197 202 205 204 212 225 228 227 229 230 230 232 233 232 231 229 227 229 231 234 238 244 250 254 258 262 266 270 273 275 277 278 280 282 283 285 286
235 231 226 228 226 225 225 223 220 221 223 223 221 224 225 221 223 225 219 217 219 219 223 217 201 194 196 196 195 199 205 203 200 198 197 197 198 198 201 207 209 208 211 214 219 226 232 234 234 233 233 231 226 226 230 234 240 245 249 254 258 262 267 270 273 275 276 279 281 283 285 286 287 288
233 228 226 230 229 227 224 220 220 221 222 222 220 223 228 228 229 229 223 220 221 220 221 220 203 197 197 196 198 201 200 198 199 199 199 199 200 202 204 209 212 209 208 209 212 218 228 234 232 229 235 234 228 231 238 240 243 245 248 255 260 264 268 270 273 276 278 281 283 284 285 286 287 288
231 227 227 228 227 227 223 218 218 219 219 221 220 221 226 227 227 227 225 225 225 220 221 225 217 207 201 196 197 201 199 198 200 200 201 201 202 208 212 215 215 211 208 208 209 213 218 221 218 220 232 233 226 230 241 246 248 251 256 262 263 265 269 272 274 277 279 281 283 284 286 287 288 289
234 229 228 229 228 226 222 216 215 216 217 218 219 220 223 225 225 224 224 226 227 227 226 227 226 219 209 201 200 202 200 200 201 200 202 203 204 209 214 216 217 218 213 205 206 213 215 212 210 211 225 233 229 230 240 248 254 260 264 269 271 272 275 276 277 279 281 283 285 287 289 290 292 293
235 232 230 232 230 224 219 216 214 215 216 217 219 222 224 225 224 222 221 223 227 229 230 228 227 225 217 210 206 200 196 198 198 197 198 199 200 204 210 213 213 212 209 200 200 212 216 212 212 213 222 234 233 228 233 242 250 257 263 267 272 276 277 278 279 281 282 284 287 288 291 293 294 295
232 233 231 229 225 217 216 217 213 212 215 216 217 218 219 221 222 222 223 225 227 228 228 228 226 223 221 219 213 207 206 204 200 200 201 199 198 197 200 207 207 199 197 195 198 209 217 218 218 218 222 229 229 224 230 242 251 258 267 273 276 279 280 281 282 283 284 286 287 290 292 294 295 296
232 234 230 226 222 218 219 221 212 208 210 215 214 211 213 220 221 220 223 225 227 229 228 227 225 222 221 221 216 214 214 212 210 213 214 211 207 202 199 203 207 207 210 208 204 208 219 225 228 225 210 211 216 221 236 255 267 272 276 280 282 284 287 288 288 288 287 287 288 291 294 297 300 301
224 228 227 224 219 215 217 219 210 202 203 208 209 202 201 213 219 223 227 226 225 227 228 229 230 227 226 225 218 215 215 217 220 223 223 218 212 207 205 205 206 216 229 228 222 221 225 230 237 237 215 202 227 243 248 258 272 284 289 289 293 300 303 303 299 296 294 294 296 299 301 303 306 308
214 220 222 222 218 212 214 212 200 191 194 200 202 192 191 211 226 230 230 225 221 222 225 227 227 226 225 224 219 217 218 220 222 221 221 221 218 213 211 209 208 215 226 234 234 229 224 220 221 221 221 234 241 237 249 266 281 299 305 308 320 331 332 330 326 321 317 315 313 311 310 309 311 320
222 223 220 222 221 216 211 199 185 183 192 201 206 202 205 226 240 239 234 230 226 224 223 220 217 217 221 221 218 219 221 217 213 209 208 213 216 214 211 211 210 211 217 225 224 214 211 216 218 223 235 239 212 200 224 276 304 317 315 323 337 343 343 342 340 338 336 331 324 323 323 318 315 330
222 222 221 224 222 214 204 192 181 184 195 202 203 199 205 224 237 235 231 227 224 222 219 216 212 211 216 218 216 215 215 209 205 199 192 189 188 184 187 200 206 204 209 217 215 201 205 218 227 239 239 218 196 198 219 243 265 277 294 328 342 339 342 343 338 337 337 330 324 325 327 324 320 328
216 215 219 221 217 209 199 188 184 188 195 201 199 193 203 221 230 227 219 211 208 208 206 203 201 200 202 203 200 198 197 196 193 190 189 188 184 175 170 181 195 202 210 216 211 196 192 188 192 213 221 207 208 224 223 219 225 244 272 318 337 335 347 343 332 333 334 327 321 320 321 324 332 337
211 211 210 210 210 206 194 186 189 193 196 202 206 205 206 209 208 206 201 192 184 181 177 177 178 177 174 174 177 182 186 189 189 190 191 193 194 198 200 190 195 211 221 223 211 195 180 181 202 199 173 171 211 215 214 219 223 229 254 290 300 335 349 333 327 336 334 327 323 318 318 328 341 338
212 208 203 203 204 199 188 183 188 193 195 197 195 188 182 183 191 196 190 179 168 162 160 159 160 163 165 165 170 178 183 187 192 196 198 198 199 207 218 214 209 217 219 211 212 200 182 193 221 214 197 187 186 184 227 230 232 240 261 292 319 344 341 324 326 331 322 321 321 319 324 340 349 346
210 199 191 192 195 192 185 182 185 189 190 187 181 178 179 183 186 185 179 171 162 156 154 154 157 165 173 172 171 172 175 181 191 195 195 197 196 199 210 214 215 223 225 214 211 201 190 200 229 228 211 193 169 110 280 243 268 299 300 318 333 339 334 331 333 321 313 320 323 318 323 334 340 346
181 178 178 182 184 185 186 187 187 186 183 181 179 179 179 172 165 165 165 164 163 162 162 162 163 164 163 159 157 151 143 142 148 159 165 169 173 179 189 199 206 217 221 212 202 193 191 205 223 215 156 153 154 129 353 306 295 297 316 330 328 328 332 336 334 315 309 321 316 305 310 325 332 338
118 145 168 179 181 182 183 185 187 184 181 180 177 174 169 162 159 161 164 167 171 172 169 166 162 152 137 138 147 148 140 131 123 122 130 136 142 149 157 164 170 177 184 188 195 194 189 198 207 165 119 92 41 322 183 292 294 300 322 331 331 324 320 327 329 309 294 302 309 305 315 338 342 343
75 108 145 161 169 173 172 174 178 179 174 167 161 157 155 153 152 156 161 167 169 167 164 159 151 145 143 142 140 141 142 139 132 128 128 125 120 120 122 117 108 96 83 89 121 193 177 136 112 134 140 133 115 88 202 262 300 295 304 319 329 322 316 323 329 313 297 298 314 318 332 346 345 349
82 92 109 124 138 147 148 147 149 152 154 153 148 143 142 140 138 142 150 155 149 141 145 147 144 144 146 141 137 137 142 143 138 135 134 128 122 119 110 87 74 63 53 52 46 28 47 121 118 135 163 158 152 142 96 325 308 291 296 307 312 321 328 328 326 325 329 340 337 336 343 346 345 351
103 106 112 115 118 126 132 134 134 138 145 151 153 152 150 144 136 135 141 144 141 137 140 143 143 142 139 136 135 135 134 133 130 131 132 129 127 129 123 108 98 89 75 62 49 31 18 37 61 32 22 94 114 96 94 108 284 295 308 309 306 324 332 321 320 341 355 1 360 357 349 344 344 352
100 114 124 126 123 124 127 128 127 130 139 150 160 169 175 173 163 151 141 133 127 124 126 129 131 130 130 129 128 126 125 124 123 126 129 128 128 129 124 117 119 122 107 78 69 62 20 2 2 6 8 11 32 69 106 138 152 331 307 288 299 316 319 321 334 351 1 2 1 360 351 344 346 348
56 64 88 124 139 147 150 147 141 140 146 154 160 166 169 167 161 154 143 133 125 122 123 124 123 121 121 120 119 120 124 126 128 135 146 148 140 130 119 112 110 113 109 90 81 101 86 11 340 325 316 304 281 154 159 171 160 135 298 293 308 313 317 330 340 348 356 357 355 354 348 346 348 343
58 62 69 78 92 114 135 143 145 145 146 147 149 152 152 148 146 147 146 143 142 139 136 132 128 126 125 124 125 126 131 141 153 159 161 161 157 153 148 138 120 106 108 108 89 80 89 79 304 285 280 260 216 173 158 61 63 115 205 244 276 302 318 343 356 357 359 357 1 7 359 347 344 339
52 57 64 71 77 84 91 97 103 108 113 119 124 131 136 137 138 140 139 139 140 138 134 131 131 134 136 139 144 151 160 168 168 161 153 150 149 153 152 140 121 104 99 103 95 83 83 78 96 264 284 264 199 158 137 10 5 17 173 199 208 289 353 24 21 10 2 4 18 23 14 356 336 337
47 52 58 65 71 76 79 83 87 91 94 99 103 110 115 119 123 127 128 128 128 125 123 123 129 138 142 142 140 141 145 153 155 152 146 138 128 125 125 117 107 100 98 99 99 96 89 79 78 76 324 297 256 122 97 14 346 338 334 337 111 96 71 48 28 16 5 5 31 31 24 20 7 357
44 46 50 58 65 70 73 76 79 83 86 88 91 96 102 106 111 114 116 117 118 119 120 122 127 135 141 142 141 140 139 144 149 146 139 130 118 108 102 97 95 94 94 95 93 88 95 124 137 110 86 280 266 29 44 20 342 340 344 346 138 111 102 111 62 28 16 19 37 14 6 20 28 23
43 43 47 56 62 67 73 75 77 80 84 86 91 95 100 105 111 113 115 118 119 121 124 126 130 134 133 126 125 129 131 130 130 130 131 130 124 118 111 106 102 98 96 93 90 87 89 226 197 149 122 121 123 97 65 57 29 4 6 24 67 83 108 140 133 118 188 51 48 15 349 5 21 19
42 46 52 60 66 71 75 78 81 85 87 90 95 99 101 104 108 111 113 116 116 116 119 125 129 133 131 122 115 114 114 108 102 98 101 111 115 115 111 107 101 99 100 94 88 86 17 352 28 106 95 66 67 72 58 49 67 53 22 21 34 41 62 82 69 67 129 126 84 57 18 6 9 17
40 52 58 63 69 72 74 76 79 83 89 93 97 99 101 102 103 105 108 113 117 117 117 117 113 112 114 115 114 118 121 116 112 109 103 100 101 100 99 103 103 95 94 98 93 79 37 33 51 72 74 58 58 76 78 69 77 91 102 352 355 6 26 38 26 19 28 104 123 107 61 24 19 34
40 53 59 63 67 69 69 71 73 80 93 98 97 96 99 98 99 103 106 107 108 106 106 109 109 103 101 103 105 110 112 109 112 116 112 106 105 100 96 105 112 95 86 99 100 81 64 58 61 70 76 74 77 86 89 84 84 91 98 79 12 356 2 5 0 355 355 10 30 44 29 12 3 2
44 54 59 64 69 69 68 70 72 78 87 91 86 84 85 85 88 96 102 103 103 102 100 101 100 96 96 97 95 98 101 97 95 95 90 86 95 104 98 101 113 105 90 91 101 94 84 76 73 77 83 84 86 91 95 93 91 87 78 65 42 13 6 7 3 357 359 16 21 11 7 5 358 348
55 63 66 70 77 82 83 83 83 82 83 83 83 84 89 93 96 102 106 108 108 105 103 105 103 99 104 110 104 96 91 85 81 81 79 77 88 101 101 99 104 96 76 72 99 109 101 92 88 92 99 102 98 98 95 88 81 75 68 54 45 35 21 13 14 13 14 20 23 18 12 12 11 10